Voltar ao catálogo

COSMOS 2251 DEB

AtivoLEO
NORAD 35287·DEBRIS·🇷🇺 Russia

Lançado Jun 16, 1993 de Plesetsk Cosmodrome

Loading…

Próximas Passagens (próximas 24 horas)

TLE

EnvelhecendoSource: Space-Track

Época: Sep 12, 2026, 08:36 UTC

1 35287U 93036AJR 26255.35868377  .00000181  00000-0  70547-4 0  9990
2 35287  74.0298 133.2653 0017941 171.1251 311.3883 14.36556835908213

Acompanhe COSMOS 2251 DEB em tempo real com AllMySat

Download on the App Store